This demonstration page uses our WeatherBlox Daily Observations layout. Learn more.

Left ArrowRight Arrow

Hourly Observations for August 29, 2018

Temp ( °F °C ) Dew Point ( °F °C ) Humidity (%) Winds ( mph kmh ) Pressure ( in mb ) Visibility ( mi km ) Precip ( " mm )
12:52 am 00:52 Clear 77 25 70 21.1 79 79 S 12 19 29.91 1013 10 16 0.00 0.00
1:52 am 01:52 Clear 77 25 70 21.1 79 79 S 12 19 29.92 1013 10 16 0.00 0.00
2:52 am 02:52 Clear 76 24.4 70 21.1 82 82 S 10 17 29.91 1013 10 16 0.00 0.00
3:52 am 03:52 Mostly Clear 76 24.4 70 21.1 82 82 SSE 9 15 29.92 1013 10 16 0.00 0.00
4:52 am 04:52 Cloudy 76 24.4 71 21.7 85 85 S 9 15 29.94 1014 10 16 0.00 0.00
5:21 am 05:21 Cloudy with Thunderstorms 76 24.4 71 21.7 85 85 S 10 17 29.94 1014 10 16 0.00 0.00
5:36 am 05:36 Cloudy with Nearby Thunderstorms 76 24.4 71 21.7 85 85 S 12 19 29.94 1014 10 16 0.00 0.00
5:52 am 05:52 Mostly Cloudy 76 24.4 71 21.7 85 85 S 9 15 29.95 1014 10 16 0.00 0.00
6:04 am 06:04 Mostly Cloudy with Nearby Thunderstorms 76 24.4 71 21.7 85 85 S 10 17 29.94 1014 10 16 0.00 0.00
6:19 am 06:19 Cloudy 76 24.4 71 21.7 85 85 S 10 17 29.94 1014 10 16 0.00 0.00
6:47 am 06:47 Cloudy with Nearby Thunderstorms 75 24 72 22 89 89 SSW 6 9 29.97 1015 10 16 0.00 0.00
6:52 am 06:52 Cloudy with Nearby Thunderstorms 76 24.4 71 21.7 85 85 SSW 5 7 29.98 1015 10 16 0.00 0.00
7:02 am 07:02 Cloudy 75 23.9 71 21.7 88 88 S 5 7 29.97 1015 10 16 0.00 0.00
7:52 am 07:52 Cloudy 76 24.4 72 22.2 88 88 S 5 7 30.01 1016 10 16 0.00 0.00
8:03 am 08:03 Cloudy with Light Rain 76 24.4 72 22.2 88 88 S 7 11 30.00 1016 9 14 0.00 0.03
8:06 am 08:06 Cloudy with Light Rain 76 24.4 72 22.2 88 88 S 6 9 30.00 1016 3 4 0.00 0.03
8:21 am 08:21 Cloudy 75 23.9 72 22.2 90 90 Calm 30.00 1016 10 16 0.08 2.03
8:52 am 08:52 Cloudy 75 23.9 72 22.2 90 90 SSE 6 9 30.00 1016 10 16 0.08 2.03
9:52 am 09:52 Cloudy 76 24.4 72 22.2 88 88 SSE 6 9 30.03 1017 10 16 0.00 0.00
10:40 am 10:40 Mostly Cloudy 77 25 73 22.8 88 88 S 8 13 30.03 1017 10 16 0.00 0.03
10:52 am 10:52 Partly Cloudy 77 25 73 22.8 88 88 SSE 9 15 30.03 1017 10 16 0.00 0.03
11:52 am 11:52 Sunny 78 25.6 72 22.2 82 82 SSE 13 20 30.05 1018 10 16 0.00 0.00
12:44 pm 12:44 Mostly Cloudy with Light Rain 77 25 73 22.8 88 88 SSE 9 15 30.03 1017 5 8 0.01 0.25
12:52 pm 12:52 Cloudy with Light Rain 77 25 73 22.8 88 88 SE 10 17 30.06 1018 8 13 0.01 0.25
12:59 pm 12:59 Cloudy with Light Rain 78 25.6 73 22.8 85 85 SE 9 15 30.06 1018 10 16 0.00 0.03
1:20 pm 13:20 Cloudy 78 25.6 73 22.8 85 85 SSE 13 20 30.06 1018 10 16 0.00 0.03
1:52 pm 13:52 Cloudy with Light Rain 76 24.4 70 21.1 82 82 ESE 13 20 30.06 1018 10 16 0.00 0.03
2:00 pm 14:00 Cloudy with Light Rain 75 23.9 69 20.6 82 82 ESE 13 20 30.06 1018 10 16 0.00 0.03
2:37 pm 14:37 Partly Cloudy 77 25 70 21.1 79 79 SSE 16 26 30.03 1017 10 16 0.00 0.03
2:52 pm 14:52 Sunny 78 25.6 69 20.6 74 74 SSE 12 19 30.04 1017 10 16 0.00 0.03
3:52 pm 15:52 Sunny 75 23.9 68 20 79 79 SSE 12 19 30.02 1017 10 16 0.00 0.00
4:52 pm 16:52 Sunny 77 25 69 20.6 77 77 SSE 10 17 30.01 1016 10 16 0.00 0.00
5:52 pm 17:52 Mostly Sunny 76 24.4 69 20.6 79 79 S 9 15 30.00 1016 10 16 0.00 0.00
6:52 pm 18:52 Sunny 76 24.4 69 20.6 79 79 SSE 6 9 30.00 1016 10 16 0.00 0.00
7:52 pm 19:52 Clear 74 23.3 68 20 82 82 SE 7 11 30.03 1017 10 16 0.00 0.00
8:14 pm 20:14 Mostly Cloudy 74 23.3 69 20.6 85 85 ESE 8 13 30.00 1016 10 16 0.00 0.00
8:52 pm 20:52 Cloudy 74 23.3 69 20.6 85 85 ESE 10 17 30.06 1018 10 16 0.00 0.00
9:16 pm 21:16 Cloudy 74 23.3 69 20.6 85 85 ESE 8 13 30.09 1019 10 16 0.00 0.00
9:52 pm 21:52 Cloudy 74 23.3 69 20.6 85 85 ESE 7 11 30.09 1019 10 16 0.00 0.00
10:52 pm 22:52 Cloudy 73 22.8 68 20 84 84 ESE 8 13 30.08 1019 10 16 0.00 0.00
11:52 pm 23:52 Mostly Cloudy 72 22.2 68 20 87 87 SE 8 13 30.08 1019 10 16 0.00 0.00

Powered by AerisWeather